[[{"header":{"parameterUnit":"m.s-1","parameterCategory":1,"la1":30.2991,"la2":30.254,"lo1":-89.0895,"lo2":-89.0444,"dy":0.0017,"dx":0.0017,"nx":28,"ny":28,"refTime":"2024-06-01T21:00:00:Z","depth":0,"parameterNumber":2,"parameterNumberName":"U-component_of_WINDS"},"data":[0,0,0,0,0,0,0,0,0,0,0,0,0,0,0,0,0,0,0,0,0,0,0,0,0,0,0,0,0,0,0,0,0,0,0,0,0,0,0,0,0,0,0,0,0,0,0,0,0,0,0,0,0,0,0,0,0,0,-0.5369,-0.537,0,-0.5453,-0.5454,-0.5455,-0.5475,-0.5474,-0.5474,-0.5473,-0.5564,-0.5567,-0.557,0,0,0,0,0,0,0,0,0,0,0,0,0,-0.5231,-0.5233,-0.5369,-0.537,-0.5371,-0.5453,-0.5454,-0.5455,-0.5475,-0.5474,-0.5473,-0.5473,-0.5563,-0.5567,-0.557,0,0,0,0,0,0,0,0,0,0,0,0,0,-0.5301,-0.5234,-0.5368,-0.539,-0.5393,-0.5452,-0.5454,-0.5455,-0.5475,-0.5474,-0.5473,-0.5472,-0.5562,-0.5566,-0.5571,-0.5615,0,0,-0.5584,-0.5586,0,0,0,0,0,0,0,0,-0.5297,-0.5306,-0.5386,-0.5389,-0.5392,-0.5452,-0.5439,-0.5509,-0.5475,-0.5444,-0.5473,-0.5472,-0.5528,-0.5535,-0.5553,-0.562,-0.5624,-0.5585,-0.5587,-0.5589,-0.5591,0,0,0,0,0,0,0,-0.5292,-0.5302,-0.5402,-0.5387,-0.5391,-0.5398,-0.5407,-0.5452,-0.549,-0.5447,-0.5448,-0.5458,-0.5529,-0.5549,-0.5555,-0.5625,-0.5585,-0.5589,-0.5591,-0.5593,-0.5735,-0.5736,0,0,0,0,0,0,-0.5282,-0.5298,-0.5399,-0.5405,-0.5341,-0.5401,-0.5411,-0.5434,-0.549,-0.5497,-0.5458,-0.5458,-0.5541,-0.555,-0.5559,-0.5616,-0.5589,-0.5593,-0.5596,-0.5734,-0.5735,-0.5736,0,0,0,0,0,0,-0.5279,-0.5291,-0.5396,-0.5352,-0.5366,-0.5404,-0.543,-0.5436,-0.5455,-0.5498,-0.5506,-0.5471,-0.5541,-0.5552,-0.5601,-0.562,-0.5595,-0.5599,-0.5733,-0.5734,-0.5736,-0.5731,0,0,0,0,0,0,-0.5275,-0.529,-0.5306,-0.5352,-0.5368,-0.5436,-0.5431,-0.5438,-0.5462,-0.5463,-0.5512,-0.5519,-0.5541,-0.5595,-0.5606,-0.5625,-0.5603,-0.5731,-0.5733,-0.5735,-0.573,-0.5732,-0.5734,0,0,0,0,0,-0.527,-0.5302,-0.5307,-0.5319,-0.5388,-0.5437,-0.5446,-0.5469,-0.5463,-0.5481,-0.5509,-0.5518,-0.5615,-0.5599,-0.5612,-0.5633,-0.573,-0.5733,-0.5735,-0.5728,-0.5732,-0.5734,0,0,0,0,0,0,-0.5259,-0.5308,-0.5314,-0.5361,-0.5394,-0.544,-0.5463,-0.5472,-0.5509,-0.5508,-0.5537,-0.5548,-0.5596,-0.5619,-0.56,-0.5681,-0.5673,-0.5678,-0.5663,-0.5667,-0.5669,-0.5663,-0.5607,0,0,0,0,0,-0.5262,-0.5295,-0.5337,-0.5375,-0.5391,-0.5424,-0.5446,-0.5461,-0.5497,-0.5512,-0.5543,-0.5579,-0.5618,-0.5644,-0.5682,-0.5733,-0.5745,-0.5754,-0.5756,-0.5758,-0.5762,-0.5793,-0.5798,-0.5745,-0.5745,-0.5745,0,0,-0.5268,-0.5299,-0.5319,-0.5373,-0.5401,-0.5436,-0.5435,-0.5473,-0.5501,-0.5518,-0.5566,-0.559,-0.5633,-0.5683,-0.5707,-0.5705,-0.5779,-0.5761,-0.5762,-0.5766,-0.5796,-0.5801,-0.5805,-0.5746,-0.5746,-0.5746,0,0,-0.5299,-0.5324,-0.5359,-0.5387,-0.5428,-0.545,-0.5458,-0.5502,-0.5519,-0.5567,-0.5581,-0.5615,-0.5681,-0.5711,-0.5735,-0.5778,-0.5788,-0.5789,-0.5802,-0.5832,-0.5836,-0.584,-0.5857,-0.5862,-0.5793,-0.5793,-0.5793,0,-0.5302,-0.5355,-0.5377,-0.5414,-0.5438,-0.5454,-0.5491,-0.5517,-0.5569,-0.5586,-0.5582,-0.5666,-0.5696,-0.5754,-0.5764,-0.5783,-0.5795,-0.5785,-0.5833,-0.5837,-0.5841,-0.5858,-0.5864,-0.5794,-0.5794,-0.5794,-0.5793,0,-0.5358,-0.5395,-0.5418,-0.5467,-0.5494,-0.553,-0.556,-0.5585,-0.5597,-0.562,-0.567,-0.5706,-0.5753,-0.5768,-0.5781,-0.5829,-0.5826,-0.5827,-0.582,-0.5846,-0.5862,-0.5869,-0.5794,-0.5794,-0.5794,-0.5794,0,0,-0.5385,-0.5445,-0.5453,-0.5476,-0.5522,-0.5552,-0.559,-0.5634,-0.5656,-0.5691,-0.5726,-0.5781,-0.5783,-0.581,-0.5827,-0.5853,-0.5886,-0.5851,-0.5852,-0.5858,-0.5944,-0.5944,-0.5951,-0.5892,-0.5894,-0.5895,-0.5941,0,-0.5423,-0.549,-0.5511,-0.5568,-0.5603,-0.5618,-0.5652,-0.5685,-0.5707,-0.5742,-0.5768,-0.5807,-0.5805,-0.5822,-0.5848,-0.5876,-0.5904,-0.5873,-0.5927,-0.5929,-0.5918,-0.5959,-0.5959,-0.6001,-0.5947,-0.5948,-0.5949,0,-0.5476,-0.5511,-0.5571,-0.5614,-0.5629,-0.5659,-0.5702,-0.5733,-0.5772,-0.5787,-0.5817,-0.5832,-0.5875,-0.5864,-0.5925,-0.5903,-0.5927,-0.5944,-0.5946,-0.5954,-0.5941,-0.5969,-0.6014,-0.6021,-0.5959,-0.5958,-0.5957,0,-0.5491,-0.5554,-0.5598,-0.5617,-0.5667,-0.5688,-0.5711,-0.5748,-0.5774,-0.5812,-0.5829,-0.5871,-0.5895,-0.5929,-0.5956,-0.5945,-0.6015,-0.6006,-0.603,-0.603,-0.6046,-0.6045,-0.6097,-0.6057,-0.6057,-0.6057,-0.6057,0,-0.5532,-0.5569,-0.5606,-0.5633,-0.5676,-0.57,-0.5742,-0.5765,-0.5799,-0.5833,-0.5849,-0.5881,-0.5913,-0.595,-0.5971,-0.6019,-0.6029,-0.6044,-0.605,-0.6044,-0.6042,-0.6061,-0.606,-0.6059,-0.6058,-0.6058,-0.6058,0,-0.5558,-0.5584,-0.5633,-0.5677,-0.5689,-0.5718,-0.5757,-0.5785,-0.5808,-0.5851,-0.5862,-0.5899,-0.5943,-0.5972,-0.6029,-0.6043,-0.6096,-0.61,-0.6083,-0.6086,-0.611,-0.6108,-0.6177,-0.6189,-0.6139,-0.614,-0.614,0,-0.5583,-0.5612,-0.5658,-0.5681,-0.5703,-0.574,-0.5766,-0.5791,-0.5818,-0.5865,-0.5888,-0.5933,-0.597,-0.604,-0.6073,-0.6117,-0.6124,-0.6145,-0.6131,-0.6124,-0.6127,-0.6125,-0.6129,-0.6148,-0.6148,-0.6149,-0.6149,0,-0.5627,-0.5638,-0.5673,-0.5714,-0.5744,-0.5777,-0.5811,-0.5829,-0.5861,-0.589,-0.5935,-0.5964,-0.6021,-0.6066,-0.6113,-0.6139,-0.615,-0.6153,-0.6161,-0.6157,-0.6146,-0.6154,-0.6091,-0.6152,-0.6151,-0.6151,-0.6151,-0.6151,-0.5654,-0.5681,-0.5718,-0.5757,-0.5785,-0.5816,-0.5845,-0.5871,-0.5908,-0.5956,-0.5969,-0.6016,-0.6056,-0.612,-0.6146,-0.6184,-0.6182,-0.6194,-0.6197,-0.62,-0.6201,-0.6138,-0.6193,-0.6193,-0.6193,-0.6193,-0.6193,0,-0.57,-0.5724,-0.576,-0.5806,-0.5838,-0.5843,-0.5881,-0.5908,-0.5948,-0.5983,-0.6019,-0.6072,-0.6116,-0.6151,-0.6197,-0.6221,-0.6228,-0.6233,-0.6233,-0.6239,-0.62,-0.6189,-0.6227,-0.6227,-0.6227,-0.6227,-0.6227,-0.6227,-0.5728,-0.5773,-0.5789,-0.585,-0.5874,-0.5919,-0.594,-0.597,-0.5998,-0.6055,-0.6091,-0.6113,-0.615,-0.6198,-0.6239,-0.6249,-0.6266,-0.627,-0.6282,-0.6245,-0.6241,-0.6238,-0.6228,-0.6273,-0.6273,-0.6318,-0.6318,-0.6319]},{"header":{"parameterUnit":"m.s-1","parameterCategory":1,"la1":30.2991,"la2":30.254,"lo1":-89.0895,"lo2":-89.0444,"dy":0.0017,"dx":0.0017,"nx":28,"ny":28,"refTime":"2024-06-01T21:00:00:Z","depth":0,"parameterNumber":3,"parameterNumberName":"V-component_of_WINDS"},"data":[0,0,0,0,0,0,0,0,0,0,0,0,0,0,0,0,0,0,0,0,0,0,0,0,0,0,0,0,0,0,0,0,0,0,0,0,0,0,0,0,0,0,0,0,0,0,0,0,0,0,0,0,0,0,0,0,0,0,2.5246,2.5246,0,2.5213,2.5212,2.5212,2.5151,2.515,2.5149,2.5148,2.5114,2.5114,2.5114,0,0,0,0,0,0,0,0,0,0,0,0,0,2.5257,2.5257,2.5246,2.5246,2.5245,2.5213,2.5212,2.5212,2.5151,2.515,2.5148,2.5147,2.5114,2.5114,2.5114,0,0,0,0,0,0,0,0,0,0,0,0,0,2.5241,2.5257,2.5246,2.5211,2.5208,2.5213,2.5212,2.5212,2.5152,2.515,2.5148,2.5146,2.5114,2.5114,2.5114,2.5151,0,0,2.5115,2.5115,0,0,0,0,0,0,0,0,2.5242,2.524,2.5217,2.5214,2.521,2.5184,2.5203,2.5191,2.5152,2.5173,2.5148,2.5146,2.5139,2.5137,2.5134,2.5149,2.5148,2.5115,2.5115,2.5115,2.5115,0,0,0,0,0,0,0,2.5243,2.5241,2.5233,2.5217,2.5212,2.5197,2.5193,2.5201,2.5166,2.5171,2.5167,2.5163,2.5136,2.5134,2.5133,2.5147,2.5115,2.5115,2.5115,2.5115,2.5187,2.5188,0,0,0,0,0,0,2.5249,2.5243,2.5234,2.5232,2.5222,2.5198,2.5193,2.5194,2.5166,2.516,2.5165,2.5161,2.5135,2.5133,2.5132,2.517,2.5115,2.5115,2.5116,2.5185,2.5187,2.5189,0,0,0,0,0,0,2.525,2.5249,2.5235,2.5236,2.5233,2.52,2.5201,2.5194,2.5192,2.5161,2.5154,2.5169,2.5133,2.5131,2.5145,2.5168,2.5116,2.5116,2.5183,2.5186,2.5188,2.5249,0,0,0,0,0,0,2.525,2.5249,2.5263,2.5237,2.5233,2.525,2.5203,2.5195,2.5193,2.5187,2.5163,2.5158,2.5132,2.5145,2.5146,2.5167,2.5116,2.5181,2.5184,2.5187,2.5245,2.5253,2.526,0,0,0,0,0,2.5251,2.5283,2.5264,2.5264,2.525,2.5252,2.525,2.5219,2.5195,2.5208,2.5188,2.5158,2.5166,2.5147,2.5147,2.5169,2.5179,2.5183,2.5187,2.5241,2.5251,2.526,0,0,0,0,0,0,2.5313,2.5279,2.5258,2.5282,2.527,2.5242,2.5257,2.5232,2.5227,2.5221,2.5183,2.5179,2.5197,2.5185,2.5165,2.5202,2.5168,2.5172,2.5209,2.5218,2.5226,2.5228,2.5116,0,0,0,0,0,2.533,2.5335,2.5304,2.5328,2.5323,2.5292,2.5291,2.5268,2.5255,2.5249,2.523,2.5218,2.5217,2.5217,2.5215,2.5243,2.5235,2.5258,2.5266,2.5272,2.5276,2.5287,2.5296,2.5202,2.5202,2.5202,0,0,2.5364,2.5346,2.5351,2.534,2.5328,2.5333,2.5288,2.5295,2.5298,2.5251,2.5262,2.5248,2.5231,2.5252,2.526,2.5242,2.53,2.5277,2.5283,2.5283,2.5292,2.5301,2.5308,2.5205,2.5204,2.5204,0,0,2.5429,2.5416,2.5434,2.5422,2.5404,2.5383,2.5387,2.5362,2.535,2.5361,2.5325,2.5328,2.5328,2.5317,2.5311,2.537,2.5341,2.537,2.5411,2.5422,2.5429,2.5436,2.5454,2.5461,2.5374,2.5374,2.5374,0,2.5473,2.5479,2.5446,2.5455,2.545,2.5407,2.5423,2.5414,2.5397,2.5394,2.5375,2.5372,2.5358,2.5374,2.5388,2.5386,2.5388,2.5372,2.5431,2.5437,2.5442,2.5459,2.5467,2.5377,2.5377,2.5377,2.5376,0,2.5534,2.5538,2.5555,2.5538,2.5535,2.5548,2.5516,2.5517,2.5494,2.5475,2.5485,2.5467,2.5459,2.5461,2.544,2.5474,2.5463,2.5438,2.5403,2.5455,2.547,2.5477,2.5382,2.5381,2.538,2.5379,0,0,2.5637,2.56,2.5606,2.5597,2.5574,2.5576,2.5586,2.5578,2.5579,2.5568,2.5574,2.5575,2.5551,2.5544,2.5521,2.5531,2.5575,2.5504,2.5503,2.5516,2.5608,2.5626,2.5634,2.5557,2.5558,2.5559,2.5609,0,2.5694,2.5709,2.5679,2.5701,2.5703,2.5662,2.567,2.5656,2.5638,2.5637,2.5617,2.5616,2.5586,2.5581,2.559,2.5568,2.5593,2.5565,2.5561,2.5561,2.5564,2.5642,2.5661,2.5709,2.5615,2.5616,2.5617,0,2.5764,2.5755,2.5777,2.575,2.575,2.5758,2.5747,2.5747,2.573,2.5715,2.5707,2.568,2.5686,2.5654,2.5662,2.5643,2.564,2.5629,2.563,2.5627,2.5591,2.5639,2.5724,2.573,2.5626,2.5625,2.5625,0,2.5833,2.5828,2.5839,2.5833,2.5802,2.5809,2.5796,2.5777,2.5773,2.5764,2.576,2.5752,2.5747,2.574,2.571,2.569,2.5721,2.5687,2.5708,2.5709,2.5715,2.5715,2.5798,2.5717,2.5717,2.5717,2.5717,0,2.59,2.5914,2.587,2.5877,2.5891,2.5856,2.5871,2.5854,2.5837,2.584,2.5804,2.5807,2.5768,2.5766,2.5743,2.5751,2.575,2.5738,2.5731,2.574,2.5741,2.5736,2.5731,2.5719,2.5718,2.5718,2.5717,0,2.5979,2.595,2.596,2.593,2.5922,2.5934,2.5908,2.5912,2.5891,2.5894,2.5893,2.586,2.5856,2.5826,2.5815,2.5799,2.5816,2.5804,2.5821,2.5817,2.5839,2.5836,2.592,2.5928,2.5844,2.5845,2.5846,0,2.6023,2.6033,2.6003,2.6001,2.599,2.5989,2.5984,2.595,2.5946,2.5926,2.5933,2.5926,2.5918,2.5913,2.5888,2.5879,2.5865,2.5895,2.5863,2.5871,2.5862,2.5861,2.5861,2.5901,2.5902,2.5903,2.5904,0,2.6102,2.6086,2.6081,2.607,2.6065,2.6055,2.6043,2.6044,2.6006,2.6003,2.5998,2.5992,2.598,2.5973,2.5959,2.5946,2.5918,2.5914,2.5918,2.5926,2.5935,2.5928,2.5837,2.5912,2.5911,2.591,2.591,2.591,2.6163,2.6168,2.6148,2.6142,2.6129,2.6118,2.612,2.6099,2.6094,2.6081,2.6061,2.6058,2.6039,2.6017,2.6006,2.6002,2.5986,2.5993,2.5994,2.5996,2.5999,2.5937,2.6,2.6,2.6,2.5999,2.5999,0,2.6238,2.6222,2.6217,2.6201,2.6196,2.617,2.6155,2.6152,2.615,2.6134,2.6127,2.612,2.6112,2.6086,2.6075,2.6077,2.6063,2.6075,2.6073,2.607,2.6016,2.6012,2.6086,2.6086,2.6086,2.6086,2.6086,2.6086,2.6276,2.6284,2.6266,2.6266,2.625,2.6246,2.6239,2.6228,2.6215,2.6208,2.6201,2.6184,2.6163,2.615,2.6141,2.6134,2.613,2.6146,2.6134,2.6083,2.6074,2.6066,2.6063,2.6146,2.6146,2.6188,2.6188,2.6189]}]]